Location: Sommers-Bausch Observatory
(40.0037°N, 105.2635°W)
Time: 01:46:19
(UTC-06:00)

Amateur Radio Satellites - All Passes

Search period start: 25 October 2014 01:16
Search period end: 26 October 2014 01:16
Location: Sommers-Bausch Observatory, 40.0037°N, 105.2635°W

Satellite Date Start Highest point End Downlink Frequencies (MHz)
Time Altitude Azimuth
UOSAT-12 25 Oct 01:23:01 01:25:19 14° 252° (WSW) 01:27:35 437.025 FM, 437.400 FM
AO-Echo 25 Oct 01:39:33 01:40:57 11° 88° (E) 01:42:21 ?
Oscar 16 25 Oct 01:43:10 01:47:15 24° 94° (E) 01:51:19 437.025 USB, Beacon 2401.1428
JAS-1B 25 Oct 01:45:29 01:51:21 29° 97° (E) 01:58:03 435.800 - 435.900 CW/SSB
Uribyol 2 25 Oct 02:03:55 02:06:55 15° 91° (E) 02:09:54 436.500 FM
ITAMSAT 1 25 Oct 02:09:47 02:13:03 17° 92° (E) 02:16:17 435.822 SSB
RS-15 25 Oct 02:16:57 02:24:41 21° 343° (NNW) 02:32:31 29.354 - 29.394 USB, Beacon 29.352 USB
Gurwin Techsat 1B 25 Oct 02:31:03 02:33:44 14° 90° (E) 02:36:24 435.225 FM
Oscar 19 25 Oct 02:35:50 02:40:58 76° 103° (ESE) 02:46:04 437.125 CW, 437.150 USB
TMSAT-1 25 Oct 02:42:27 02:44:48 13° 90° (E) 02:47:09 436.925 FM
AO-27 25 Oct 02:54:07 02:59:08 45° 99° (E) 03:04:07 436.795 MHz FM
AO-Echo 25 Oct 03:14:59 03:20:20 86° 285° (WNW) 03:25:38 ?
Oscar 16 25 Oct 03:21:58 03:26:42 39° 290° (WNW) 03:31:25 437.025 USB, Beacon 2401.1428
Sapphire 25 Oct 03:23:26 03:28:04 30° 109° (ESE) 03:32:44 437.095 MHz 1200 baud AX-25 AFSK
JAS-1B 25 Oct 03:35:37 03:42:03 53° 289° (WNW) 03:49:41 435.800 - 435.900 CW/SSB
Uribyol 2 25 Oct 03:41:39 03:46:48 62° 287° (WNW) 03:51:54 436.500 FM
PCSat 25 Oct 03:45:14 03:50:27 51° 113° (ESE) 03:55:42 145.825 MHz
ITAMSAT 1 25 Oct 03:47:46 03:52:54 58° 288° (WNW) 03:57:59 435.822 SSB
Gurwin Techsat 1B 25 Oct 04:08:53 04:14:11 70° 286° (WNW) 04:19:27 435.225 FM
OPAL 25 Oct 04:10:26 04:14:09 21° 62° (ENE) 04:17:51 ?
Oscar 19 25 Oct 04:17:12 04:19:38 14° 299° (WNW) 04:22:05 437.125 CW, 437.150 USB
TMSAT-1 25 Oct 04:19:57 04:25:15 74° 286° (WNW) 04:30:32 436.925 FM
AO-27 25 Oct 04:34:21 04:38:20 23° 296° (WNW) 04:42:18 436.795 MHz FM
RS-15 25 Oct 04:34:44 04:42:46 22° 20° (NNE) 04:50:58 29.354 - 29.394 USB, Beacon 29.352 USB
AO-Echo 25 Oct 04:56:29 04:58:15 12° 301° (WNW) 05:00:01 ?
JAS-2 25 Oct 04:59:04 05:03:48 17° 87° (E) 05:08:29 435.800 - 435.900 CW/SSB, 435.910 FM
Uosat F 25 Oct 05:00:24 05:05:07 38° 98° (E) 05:09:47 435.120 FM
Sapphire 25 Oct 05:06:21 05:11:21 38° 306° (NW) 05:16:24 437.095 MHz 1200 baud AX-25 AFSK
AO-7 25 Oct 05:13:32 05:21:48 64° 104° (ESE) 05:30:02 29.400 - 29.500 MHz
PCSat 25 Oct 05:29:46 05:34:09 24° 311° (NW) 05:38:33 145.825 MHz
OPAL 25 Oct 05:47:40 05:52:40 50° 258° (WSW) 05:57:38 ?
STRAND 1 25 Oct 05:55:14 05:58:58 21° 64° (ENE) 06:02:44 ?
Hamsat 25 Oct 06:00:18 06:03:28 21° 94° (E) 06:06:38 145.90 MHz
Uosat F 25 Oct 06:39:38 06:43:40 25° 294° (WNW) 06:47:41 435.120 FM
JAS-2 25 Oct 06:41:48 06:49:39 87° 104° (ESE) 06:57:27 435.800 - 435.900 CW/SSB, 435.910 FM
RS-15 25 Oct 06:47:27 06:58:23 56° 50° (NE) 07:09:43 29.354 - 29.394 USB, Beacon 29.352 USB
Saudisat 1A 25 Oct 06:49:50 06:53:01 20° 111° (ESE) 06:56:13 436.775 MHz
AO-7 25 Oct 07:07:08 07:14:01 30° 303° (WNW) 07:20:55 29.400 - 29.500 MHz
STRAND 1 25 Oct 07:32:52 07:37:48 48° 260° (W) 07:42:47 ?
Hamsat 25 Oct 07:35:44 07:39:26 31° 289° (WNW) 07:43:09 145.90 MHz
Saudisat 1A 25 Oct 08:28:08 08:32:17 41° 308° (NW) 08:36:29 436.775 MHz
JAS-2 25 Oct 08:28:19 08:33:42 21° 302° (WNW) 08:39:09 435.800 - 435.900 CW/SSB, 435.910 FM
SO-67 25 Oct 08:31:55 08:35:12 42° 286° (WNW) 08:38:27 435.3500 MHz FM
MaSat-1 25 Oct 08:37:34 08:38:24 11° 53° (NE) 08:39:13 437.345 MHz
PANSAT 25 Oct 08:59:49 09:01:58 15° 178° (S) 09:04:08 not established
RS-15 25 Oct 09:00:11 09:10:30 45° 251° (WSW) 09:21:16 29.354 - 29.394 USB, Beacon 29.352 USB
HO-68 25 Oct 09:19:10 09:25:39 35° 97° (E) 09:32:05 435.675 MHz FM
Oscar 11 25 Oct 09:52:50 09:55:55 19° 94° (E) 09:58:59 145.825 FM, Beacon 2401.500 USB
MaSat-1 25 Oct 10:12:11 10:14:00 18° 253° (WSW) 10:15:43 437.345 MHz
Oscar 10/S400 25 Oct 10:31:42 10:48:57 16° 155° (SSE) 11:00:01 145.825 - 145.975 CW/USB, Beacon 145.810 USB
PANSAT 25 Oct 10:40:06 10:41:24 11° 191° (SSW) 10:42:41 not established
ZACube-1 25 Oct 10:43:11 10:46:51 28° 96° (E) 10:50:27 437.345 MHz
UKube-1 25 Oct 10:46:51 10:51:14 83° 103° (ESE) 10:55:36 145.840 MHz, 145.915 MHz
KITSAT 1 25 Oct 10:55:48 11:01:18 21° 102° (ESE) 11:06:49 435.175 FM
HO-68 25 Oct 11:06:41 11:13:24 44° 294° (WNW) 11:20:06 435.675 MHz FM
FUNcube-1 25 Oct 11:27:22 11:31:38 88° 283° (WNW) 11:35:48 145.950 - 145.970 MHz USB
Oscar 11 25 Oct 11:28:16 11:32:11 35° 289° (WNW) 11:36:06 145.825 FM, Beacon 2401.500 USB
ISS 25 Oct 11:54:26 11:56:59 21° 132° (SE) 11:59:33 145.800 FM
Sapphire 25 Oct 12:11:45 12:16:07 24° 48° (NE) 12:20:27 437.095 MHz 1200 baud AX-25 AFSK
Oscar 19 25 Oct 12:16:19 12:18:32 13° 60° (ENE) 12:20:46 437.125 CW, 437.150 USB
ZACube-1 25 Oct 12:19:46 12:23:07 23° 292° (WNW) 12:26:25 437.345 MHz
SO-50 25 Oct 12:31:50 12:35:56 37° 115° (ESE) 12:40:10 436.795 FM
JAS-1B 25 Oct 12:33:25 12:37:13 18° 61° (ENE) 12:40:58 435.800 - 435.900 CW/SSB
PCSat 25 Oct 12:33:51 12:38:53 37° 53° (NE) 12:43:51 145.825 MHz
KITSAT 1 25 Oct 12:47:39 12:55:45 81° 300° (WNW) 13:03:53 435.175 FM
AO-Echo 25 Oct 12:51:40 12:54:04 14° 60° (ENE) 12:56:31 ?
Oscar 16 25 Oct 12:59:23 13:03:58 33° 68° (ENE) 13:08:33 437.025 USB, Beacon 2401.1428
Uribyol 2 25 Oct 13:20:51 13:24:54 23° 65° (ENE) 13:28:57 436.500 FM
ITAMSAT 1 25 Oct 13:26:55 13:31:05 25° 65° (ENE) 13:35:15 435.822 SSB
ISS 25 Oct 13:30:17 13:33:29 43° 328° (NNW) 13:36:42 145.800 FM
Gurwin Techsat 1B 25 Oct 13:51:05 13:55:05 22° 64° (ENE) 13:59:05 435.225 FM
Oscar 19 25 Oct 13:52:01 13:57:11 81° 257° (WSW) 14:02:21 437.125 CW, 437.150 USB
UOSAT-12 25 Oct 13:52:25 13:56:01 23° 111° (ESE) 13:59:41 437.025 FM, 437.400 FM
Sapphire 25 Oct 13:54:34 13:59:51 53° 247° (WSW) 14:05:05 437.095 MHz 1200 baud AX-25 AFSK
TMSAT-1 25 Oct 14:02:03 14:05:53 21° 64° (ENE) 14:09:43 436.925 FM
AO-27 25 Oct 14:11:32 14:16:40 65° 73° (ENE) 14:21:52 436.795 MHz FM
SO-50 25 Oct 14:12:46 14:16:34 26° 313° (NW) 14:20:28 436.795 FM
PCSat 25 Oct 14:17:27 14:22:10 31° 251° (WSW) 14:26:52 145.825 MHz
JAS-1B 25 Oct 14:21:34 14:27:29 58° 258° (WSW) 14:33:05 435.800 - 435.900 CW/SSB
AO-7 25 Oct 14:23:13 14:28:16 18° 50° (NE) 14:33:19 29.400 - 29.500 MHz
AO-Echo 25 Oct 14:27:17 14:32:09 73° 258° (WSW) 14:37:13 ?
Oscar 16 25 Oct 14:38:52 14:43:18 29° 264° (W) 14:47:44 437.025 USB, Beacon 2401.1428
KITSAT 1 25 Oct 14:46:25 14:52:26 22° 323° (NW) 14:58:30 435.175 FM
Uribyol 2 25 Oct 14:59:07 15:04:04 43° 261° (W) 15:09:04 436.500 FM
ITAMSAT 1 25 Oct 15:05:27 15:10:19 40° 262° (W) 15:15:15 435.822 SSB
ISS 25 Oct 15:09:03 15:10:51 14° 347° (NNW) 15:12:40 145.800 FM
Saudisat 1A 25 Oct 15:16:36 15:19:31 17° 43° (NE) 15:22:25 436.775 MHz
Gurwin Techsat 1B 25 Oct 15:29:37 15:34:42 47° 261° (W) 15:39:50 435.225 FM
UOSAT-12 25 Oct 15:31:32 15:35:55 41° 308° (NW) 15:40:23 437.025 FM, 437.400 FM
TMSAT-1 25 Oct 15:40:16 15:45:24 51° 260° (W) 15:50:34 436.925 FM
AO-27 25 Oct 15:53:47 15:56:37 15° 269° (W) 15:59:28 436.795 MHz FM
AO-7 25 Oct 16:11:31 16:19:46 79° 70° (ENE) 16:28:04 29.400 - 29.500 MHz
Uosat F 25 Oct 16:12:55 16:17:45 50° 71° (ENE) 16:22:37 435.120 FM
ISS 25 Oct 16:47:13 16:48:40 12° 8° (N) 16:50:08 145.800 FM
JAS-2 25 Oct 16:53:47 16:59:09 35° 65° (ENE) 17:05:09 435.800 - 435.900 CW/SSB, 435.910 FM
Hamsat 25 Oct 16:54:03 16:56:21 15° 65° (ENE) 16:58:39 145.90 MHz
Saudisat 1A 25 Oct 16:55:07 16:59:30 63° 241° (WSW) 17:03:51 436.775 MHz
Uosat F 25 Oct 17:53:25 17:56:48 18° 267° (W) 18:00:13 435.120 FM
OPAL 25 Oct 17:58:13 18:02:56 43° 101° (E) 18:07:37 ?
AO-7 25 Oct 18:07:27 18:13:19 21° 268° (W) 18:19:13 29.400 - 29.500 MHz
ISS 25 Oct 18:23:11 18:26:12 30° 28° (NNE) 18:29:11 145.800 FM
Hamsat 25 Oct 18:27:51 18:31:54 47° 261° (W) 18:35:58 145.90 MHz
JAS-2 25 Oct 18:38:42 18:44:07 37° 266° (W) 18:50:14 435.800 - 435.900 CW/SSB, 435.910 FM
KITSAT 1 25 Oct 18:47:42 18:51:41 14° 25° (NNE) 18:55:39 435.175 FM
SO-67 25 Oct 19:03:27 19:06:46 48° 75° (ENE) 19:10:06 435.3500 MHz FM
OPAL 25 Oct 19:37:47 19:41:31 22° 297° (WNW) 19:45:15 ?
STRAND 1 25 Oct 19:43:55 19:49:02 61° 101° (ESE) 19:54:06 ?
HO-68 25 Oct 19:47:54 19:53:33 26° 59° (ENE) 19:59:12 435.675 MHz FM
ISS 25 Oct 19:59:50 20:02:53 33° 225° (SW) 20:05:55 145.800 FM
KITSAT 1 25 Oct 20:41:48 20:49:30 45° 51° (NE) 20:57:09 435.175 FM
Oscar 11 25 Oct 20:48:08 20:50:36 15° 65° (ENE) 20:53:03 145.825 FM, Beacon 2401.500 USB
SO-50 25 Oct 21:03:43 21:08:04 32° 49° (NE) 21:12:26 436.795 FM
RS-15 25 Oct 21:11:41 21:21:06 34° 106° (ESE) 21:30:23 29.354 - 29.394 USB, Beacon 29.352 USB
STRAND 1 25 Oct 21:24:29 21:27:42 17° 298° (WNW) 21:30:54 ?
HO-68 25 Oct 21:33:38 21:40:42 63° 257° (WSW) 21:47:50 435.675 MHz FM
ZACube-1 25 Oct 21:39:01 21:42:40 24° 68° (ENE) 21:46:16 437.345 MHz
UKube-1 25 Oct 21:41:24 21:45:42 65° 74° (ENE) 21:50:02 145.840 MHz, 145.915 MHz
Oscar 11 25 Oct 22:22:10 22:26:21 49° 261° (W) 22:30:34 145.825 FM, Beacon 2401.500 USB
UOSAT-12 25 Oct 22:22:10 22:25:42 20° 44° (NE) 22:29:10 437.025 FM, 437.400 FM
FUNcube-1 25 Oct 22:22:25 22:26:58 68° 75° (ENE) 22:31:28 145.950 - 145.970 MHz USB
KITSAT 1 25 Oct 22:37:23 22:44:50 43° 250° (WSW) 22:52:16 435.175 FM
SO-50 25 Oct 22:44:16 22:48:36 33° 246° (WSW) 22:52:57 436.795 FM
ZACube-1 25 Oct 23:14:46 23:18:53 32° 263° (W) 23:22:58 437.345 MHz
UKube-1 25 Oct 23:21:25 23:22:18 11° 270° (W) 23:23:10 145.840 MHz, 145.915 MHz
RS-15 25 Oct 23:21:46 23:32:40 66° 307° (NW) 23:43:34 29.354 - 29.394 USB, Beacon 29.352 USB
MaSat-1 25 Oct 23:46:25 23:50:34 84° 116° (ESE) 23:54:20 437.345 MHz
UOSAT-12 26 Oct 00:01:34 00:06:11 56° 242° (WSW) 00:10:42 437.025 FM, 437.400 FM
FUNcube-1 26 Oct 00:02:30 00:03:45 11° 270° (W) 00:05:00 145.950 - 145.970 MHz USB
